Temp
77 78 77 75 75 74 75 74 73 72 73 73 73 72 71 70 70 67 66 65 64 62 61 61 60 59 59 60 60 61 62 61 58 56 56 58 60 61 63 62 64 62 62
74 77 77 76 75 75 77 75 75 74 73 74 73 73 71 71 69 67 66 65 64 62 61 60 60 63 59 58 59 58 59 59 59 56 56 58 59 60 60 60 63 68 62
77 79 77 76 75 76 77 76 75 74 74 73 73 73 71 70 69 68 67 65 64 63 61 61 60 60 58 57 57 58 58 60 57 57 55 55 57 57 59 59 59 59 66
78 77 77 76 77 78 76 74 74 75 73 74 74 73 72 71 69 68 66 64 63 62 61 61 61 60 60 59 59 58 59 59 57 57 55 55 56 55 54 54 56 56 58
76 76 77 78 78 76 75 74 74 74 75 75 73 71 72 71 69 67 66 64 62 61 61 62 61 64 68 64 61 59 59 56 56 55 54 54 53 53 53 53 52 51 55
74 75 77 75 75 75 75 75 75 73 73 73 72 71 71 72 69 69 69 65 62 62 60 60 61 68 67 68 68 66 64 58 55 55 53 54 54 52 51 51 50 52 53
73 73 74 74 74 74 75 74 74 73 73 73 73 72 72 71 67 68 70 67 64 61 60 59 62 65 64 62 66 67 66 67 67 59 57 56 54 54 53 51 51 50 51
74 73 74 73 72 74 74 74 74 73 74 74 73 73 71 71 66 67 69 68 65 62 60 59 59 59 59 60 59 59 60 61 62 63 61 58 57 55 56 56 54 52 51
74 74 74 74 73 73 73 73 73 73 73 74 74 72 71 71 64 65 65 66 65 64 63 60 59 58 62 64 59 58 58 59 64 64 63 63 64 63 60 56 54 54 51
73 74 74 73 73 73 73 73 71 72 73 73 72 72 68 70 62 63 64 62 59 60 61 64 64 61 62 62 58 57 56 58 59 57 57 60 61 62 64 59 56 53 49
74 74 73 72 71 72 72 72 71 71 71 71 71 71 70 65 62 62 61 61 61 60 62 62 63 61 59 59 60 59 60 59 61 57 57 57 57 58 58 57 57 56 52
72 72 72 72 71 71 70 70 70 70 70 70 71 68 67 65 62 60 60 62 63 60 63 66 64 59 57 58 59 61 61 61 57 56 55 55 56 56 58 58 57 55 56
69 69 69 71 71 71 69 68 69 69 71 71 69 67 64 64 62 60 59 59 61 63 67 66 61 57 56 57 60 60 60 57 56 55 56 56 57 59 57 57 56 55 55
68 67 68 69 69 69 69 68 68 71 71 71 69 67 65 64 63 61 60 59 60 63 64 63 63 62 60 61 59 60 59 58 58 57 57 57 57 57 57 57 56 55 54
67 67 68 68 69 69 68 67 68 71 69 71 70 69 67 64 64 61 59 60 61 61 61 61 60 58 59 58 57 59 59 57 56 56 56 57 58 57 57 55 55 57 53
66 66 68 68 68 67 66 65 56 55 55 54 53 63 70 61 55 53 52 51 52 53 63 62 63 61 61 61 60 60 60 59 57 57 55 57 57 57 57 57 59 58 52
66 67 67 65 66 66 65 64 64 60 51 51 51 51 52 59 51 51 50 49 51 53 63 64 64 63 63 62 63 63 62 61 59 58 57 57 57 58 60 60 58 57 52
67 61 66 66 65 65 66 65 63 64 64 64 54 53 50 48 48 49 49 51 52 55 63 64 63 62 63 64 64 64 63 61 59 59 57 58 58 60 60 58 56 53 52
68 66 66 65 65 63 63 63 64 65 65 65 62 54 51 46 45 46 48 60 58 56 62 65 63 65 62 65 64 64 64 62 61 59 59 57 58 60 60 59 55 52 51
65 63 62 62 60 62 62 64 65 65 65 64 64 64 57 53 55 53 53 60 60 60 60 62 60 61 61 63 60 59 61 60 60 59 57 57 58 61 61 56 55 52 51
63 62 62 59 59 61 63 64 65 65 64 64 64 62 54 60 60 57 55 56 61 62 61 61 61 60 61 62 60 60 62 62 60 59 58 57 57 56 57 56 58 52 51
61 61 61 61 61 61 62 63 64 65 64 63 62 62 49 59 62 61 58 59 60 63 63 62 61 61 62 61 60 59 61 62 60 59 58 57 57 57 57 58 54 51 49
60 60 61 61 61 60 63 64 63 63 62 62 61 61 58 58 59 60 62 60 60 62 63 62 61 61 62 62 62 62 62 63 62 62 60 59 57 56 58 55 52 50 49
59 60 61 61 60 60 61 63 64 59 62 63 62 61 60 58 57 58 59 60 60 60 60 60 61 63 62 64 68 68 67 66 64 63 64 62 58 53 54 53 52 51 50
58 58 59 59 59 60 61 62 62 63 63 63 62 62 60 58 58 59 60 60 59 59 59 60 60 61 63 64 67 68 60 45 62 56 63 61 59 58 57 54 51 50 50
60 61 60 60 60 60 59 60 62 64 64 63 63 62 59 58 59 59 59 58 58 58 58 59 59 60 61 60 66 56 41 41 51 48 61 61 61 58 55 54 53 51 51
MSLP
1011.65 1012.07 1012.61 1012.94 1013.17 1013.55 1013.85 1014.16 1014.55 1015.01 1015.39 1015.71 1016.03 1016.47 1016.88 1017.17 1017.64 1018.03 1018.38 1018.88 1019.18 1019.35 1019.44 1019.55 1019.80 1019.84 1020.01 1020.07 1020.11 1020.25 1020.62 1021.04 1022.17 1022.97 1022.95 1022.80 1022.75 1022.71 1022.59 1022.49 1022.26 1022.21 1022.31
1011.21 1011.79 1011.87 1012.22 1012.62 1013.06 1013.27 1013.56 1013.92 1014.33 1014.77 1015.13 1015.51 1016.06 1016.58 1016.91 1017.33 1017.82 1018.24 1018.71 1019.07 1019.41 1019.50 1019.72 1019.89 1019.80 1019.86 1020.03 1020.33 1020.59 1020.75 1020.94 1021.49 1022.57 1022.92 1022.97 1022.93 1022.78 1022.72 1022.60 1022.44 1022.19 1022.34
1010.83 1011.24 1011.51 1011.72 1012.02 1012.34 1012.77 1013.09 1013.40 1013.80 1014.21 1014.73 1015.22 1015.63 1016.13 1016.58 1017.24 1017.65 1017.91 1018.37 1018.87 1019.20 1019.40 1019.66 1019.88 1019.93 1020.13 1020.05 1020.05 1020.57 1020.96 1021.07 1021.25 1022.04 1022.93 1023.13 1023.29 1023.27 1023.12 1022.91 1022.80 1022.66 1022.28
1010.35 1010.59 1010.84 1010.97 1011.18 1011.65 1012.30 1012.75 1013.06 1013.36 1013.81 1014.13 1014.37 1014.90 1015.56 1016.06 1016.67 1017.11 1017.79 1018.30 1018.71 1018.97 1019.19 1019.45 1019.70 1020.02 1020.10 1020.17 1020.25 1020.33 1020.67 1021.32 1021.84 1022.31 1022.98 1023.41 1023.51 1023.70 1023.71 1023.78 1023.53 1023.33 1023.19
1009.57 1009.88 1010.04 1010.19 1010.68 1011.29 1011.81 1012.12 1012.53 1012.89 1013.11 1013.45 1014.38 1014.67 1015.08 1015.55 1016.00 1016.50 1017.11 1017.97 1018.57 1018.98 1019.18 1019.27 1019.55 1019.60 1019.87 1019.85 1019.98 1020.55 1020.96 1021.56 1022.23 1022.78 1023.38 1023.62 1023.81 1023.92 1024.07 1024.13 1024.05 1023.88 1023.71
1009.50 1009.72 1010.00 1010.29 1010.54 1010.90 1011.27 1011.63 1012.07 1012.44 1012.84 1013.16 1013.66 1014.06 1014.42 1014.82 1015.24 1015.89 1016.53 1017.32 1018.21 1018.75 1019.23 1019.28 1019.39 1019.64 1019.82 1020.11 1020.12 1020.02 1020.15 1021.07 1021.97 1022.60 1023.15 1023.56 1023.67 1023.87 1024.03 1024.15 1024.36 1024.43 1024.31
1009.57 1009.84 1010.02 1010.25 1010.52 1010.81 1011.01 1011.43 1011.85 1012.27 1012.44 1012.57 1012.71 1013.01 1013.33 1013.77 1014.44 1015.09 1015.77 1016.45 1017.29 1018.18 1018.87 1019.16 1019.31 1019.53 1019.72 1020.07 1020.05 1020.27 1020.34 1020.16 1020.15 1021.03 1022.12 1022.84 1023.19 1023.23 1023.42 1024.01 1024.39 1024.45 1024.52
1009.67 1009.86 1009.97 1010.18 1010.33 1010.53 1010.67 1010.97 1011.27 1011.44 1011.60 1011.74 1012.19 1012.57 1012.93 1013.32 1013.98 1014.61 1015.35 1015.90 1016.49 1017.37 1018.03 1018.95 1019.35 1019.30 1019.49 1019.87 1020.32 1020.28 1020.55 1020.46 1020.53 1020.94 1021.39 1022.02 1022.20 1022.71 1022.84 1023.31 1023.91 1024.21 1024.50
1009.79 1009.88 1009.82 1009.86 1010.03 1010.20 1010.35 1010.41 1010.48 1010.74 1010.85 1010.95 1011.20 1011.77 1012.30 1013.06 1013.63 1014.11 1014.91 1015.67 1016.28 1016.71 1016.92 1015.90 1018.23 1019.12 1019.34 1019.63 1020.05 1020.57 1020.59 1020.80 1020.65 1020.81 1021.29 1021.63 1021.77 1022.13 1022.62 1023.23 1023.99 1024.24 1024.71
1009.97 1009.83 1009.73 1009.79 1009.94 1009.93 1009.91 1009.99 1010.11 1010.22 1010.32 1010.39 1010.83 1011.31 1011.77 1012.43 1013.07 1013.74 1014.47 1015.29 1016.29 1016.56 1017.11 1017.49 1016.31 1017.23 1018.71 1019.28 1019.73 1020.37 1020.79 1020.87 1021.15 1021.17 1021.63 1021.77 1021.88 1022.16 1022.38 1022.64 1023.21 1024.09 1024.44
1009.96 1009.76 1009.55 1009.51 1009.63 1009.61 1009.74 1009.73 1009.80 1009.92 1010.04 1010.32 1010.55 1010.95 1011.28 1011.67 1012.54 1013.16 1013.57 1014.62 1015.35 1015.79 1016.37 1017.03 1017.15 1017.31 1017.99 1018.72 1019.31 1019.89 1020.20 1020.43 1020.95 1021.43 1021.72 1021.92 1022.05 1022.19 1022.42 1022.55 1022.75 1022.98 1023.63
1009.77 1009.81 1009.65 1009.32 1009.10 1009.11 1009.28 1009.13 1009.21 1009.43 1009.54 1009.75 1010.12 1010.36 1010.68 1011.14 1011.71 1012.67 1013.02 1013.47 1014.43 1015.11 1015.65 1016.14 1016.73 1017.49 1017.29 1017.93 1018.99 1019.43 1019.77 1020.26 1020.72 1021.48 1021.97 1021.96 1021.90 1021.77 1021.85 1022.07 1022.33 1022.57 1022.53
1009.67 1009.61 1009.47 1009.19 1008.95 1008.88 1009.05 1009.00 1009.07 1009.12 1009.26 1009.43 1009.91 1010.32 1010.62 1011.00 1011.50 1012.00 1012.60 1013.19 1014.10 1014.59 1014.83 1015.27 1016.08 1016.89 1017.16 1017.61 1018.29 1019.07 1019.47 1019.92 1020.46 1021.20 1021.73 1021.71 1021.27 1020.64 1021.05 1021.67 1022.03 1022.40 1022.32
1009.30 1009.29 1009.21 1009.15 1009.03 1008.97 1008.77 1008.81 1008.86 1008.77 1008.74 1008.83 1009.14 1009.48 1009.92 1010.58 1011.30 1012.01 1012.73 1013.01 1013.41 1013.94 1014.15 1014.81 1015.65 1016.17 1016.55 1017.07 1017.78 1018.60 1018.96 1019.25 1019.74 1020.13 1020.92 1020.94 1020.97 1020.53 1020.88 1021.38 1021.89 1022.14 1022.36
1009.14 1009.00 1008.92 1008.86 1008.86 1008.81 1008.64 1008.52 1008.47 1008.17 1008.27 1008.39 1008.53 1008.87 1009.36 1009.82 1009.86 1010.43 1011.33 1012.26 1012.51 1013.05 1013.65 1014.39 1015.39 1016.49 1016.63 1016.78 1017.47 1018.10 1018.59 1018.85 1019.35 1019.71 1020.28 1020.66 1020.70 1020.44 1020.54 1021.19 1021.74 1021.96 1022.29
1009.03 1008.79 1008.58 1008.43 1008.37 1008.40 1008.41 1008.44 1008.26 1008.07 1007.89 1007.81 1007.91 1008.10 1008.25 1008.53 1009.11 1009.55 1010.13 1011.03 1011.77 1012.26 1013.12 1013.60 1014.15 1014.83 1015.59 1016.00 1016.59 1017.31 1017.81 1018.23 1018.59 1019.08 1019.66 1020.13 1020.50 1020.43 1020.37 1020.83 1021.38 1021.69 1022.17
1008.63 1008.25 1008.05 1007.99 1007.88 1007.95 1008.01 1008.00 1007.84 1007.67 1007.76 1007.73 1007.69 1007.72 1007.86 1007.93 1008.45 1008.83 1009.63 1010.36 1010.91 1011.69 1011.94 1012.45 1012.95 1013.33 1013.79 1014.85 1015.56 1016.01 1016.50 1017.08 1017.75 1018.47 1019.04 1019.49 1019.83 1019.95 1020.05 1020.59 1020.90 1021.48 1021.90
1008.07 1007.74 1007.59 1007.33 1007.27 1007.31 1007.31 1007.31 1007.48 1007.64 1007.68 1007.51 1007.18 1007.41 1007.66 1007.93 1008.17 1008.41 1008.86 1010.07 1011.23 1011.06 1010.96 1011.32 1011.83 1012.41 1012.90 1013.70 1014.28 1014.83 1015.41 1016.15 1017.05 1017.63 1018.20 1018.61 1019.09 1019.33 1019.51 1020.15 1020.45 1020.88 1021.51
1007.57 1007.30 1006.98 1006.81 1006.81 1006.92 1006.99 1006.92 1006.99 1007.02 1006.91 1006.75 1006.82 1007.11 1007.35 1007.83 1007.88 1008.37 1008.91 1009.27 1009.80 1010.28 1010.07 1010.21 1010.59 1011.21 1011.83 1012.33 1013.17 1013.90 1014.58 1015.15 1016.01 1016.68 1017.22 1017.70 1018.20 1018.65 1018.92 1019.41 1019.85 1020.39 1021.05
1007.17 1007.12 1007.11 1007.01 1006.87 1006.77 1006.70 1006.67 1006.53 1006.33 1006.26 1006.20 1006.21 1006.33 1006.75 1007.73 1008.01 1008.46 1008.79 1008.72 1008.85 1008.87 1008.80 1009.14 1009.40 1009.97 1010.61 1011.42 1012.40 1013.17 1014.20 1014.60 1015.17 1015.71 1016.32 1016.86 1017.43 1017.80 1018.13 1018.67 1019.24 1019.91 1020.39
1007.27 1006.99 1006.79 1006.65 1006.49 1006.28 1006.05 1005.87 1005.74 1005.63 1005.46 1005.38 1005.51 1005.79 1006.01 1006.38 1006.79 1007.23 1007.63 1007.80 1007.49 1007.39 1007.51 1007.82 1008.42 1008.97 1009.63 1010.36 1011.26 1012.33 1013.22 1013.84 1014.25 1014.84 1015.48 1016.09 1016.65 1017.23 1017.39 1017.89 1018.46 1019.25 1019.79
1007.30 1007.02 1006.67 1006.38 1005.97 1005.62 1005.22 1005.00 1004.76 1004.55 1004.42 1004.53 1004.68 1005.00 1005.38 1005.43 1005.61 1005.68 1005.78 1005.86 1005.87 1005.89 1006.05 1006.39 1007.22 1008.01 1008.40 1009.19 1009.90 1011.28 1012.34 1012.74 1013.30 1013.86 1014.51 1015.12 1015.69 1016.15 1016.83 1017.42 1018.28 1018.90 1019.43
1007.41 1007.10 1006.64 1006.15 1005.67 1005.02 1004.51 1004.04 1003.77 1003.61 1003.45 1003.38 1003.67 1003.94 1004.30 1004.34 1004.45 1004.42 1004.24 1004.17 1004.42 1004.47 1004.66 1004.92 1005.79 1006.46 1007.45 1008.09 1008.85 1010.15 1011.09 1011.39 1011.95 1012.62 1013.50 1014.24 1014.91 1015.65 1016.30 1017.11 1017.78 1018.46 1018.95
1007.42 1007.01 1006.53 1005.88 1005.27 1004.73 1004.07 1003.28 1002.76 1002.44 1002.35 1002.37 1002.60 1002.73 1002.74 1002.95 1003.01 1003.06 1003.00 1002.85 1002.96 1003.04 1003.35 1003.94 1004.48 1005.43 1006.23 1006.91 1007.72 1008.87 1009.65 1010.22 1010.76 1011.55 1012.14 1013.29 1014.08 1014.91 1015.68 1016.33 1016.99 1017.53 1018.15
1007.42 1006.94 1006.40 1005.73 1004.97 1004.16 1003.35 1002.60 1001.91 1001.39 1001.24 1001.28 1001.37 1001.47 1001.55 1001.74 1001.91 1001.94 1001.56 1001.69 1001.88 1002.14 1002.70 1003.11 1003.61 1004.78 1005.71 1006.16 1006.97 1007.88 1008.58 1009.22 1009.75 1010.52 1011.50 1012.27 1013.14 1014.01 1014.60 1015.26 1016.17 1017.08 1017.79
1007.30 1006.62 1005.87 1005.00 1003.99 1003.15 1002.39 1001.65 1000.97 1000.21 1000.13 1000.21 1000.35 1000.45 1000.69 1000.83 1001.03 1000.85 1000.96 1001.07 1001.26 1001.75 1002.33 1002.85 1003.47 1004.55 1005.12 1005.70 1006.40 1007.07 1007.85 1008.59 1009.15 1009.75 1010.54 1011.43 1012.38 1013.29 1013.98 1014.75 1015.69 1016.45 1016.98
Wind_Speed
10 10 9 9 9 8 8 8 8 6 7 7 8 7 7 7 7 6 6 6 6 4 3 5 3 2 2 2 2 2 3 3 4 1 1 1 2 2 3 4 3 2 2
10 9 11 8 8 10 11 9 8 9 7 9 9 8 7 7 7 7 7 6 7 6 6 5 5 3 3 2 2 3 3 2 4 5 1 1 1 1 1 2 3 3 2
12 12 10 9 9 10 10 8 8 8 8 7 8 9 9 8 8 7 7 8 7 6 6 6 6 6 4 2 3 4 3 3 4 5 3 1 2 2 3 3 4 4 3
9 10 10 10 12 10 7 7 7 8 8 9 10 10 10 9 9 8 7 7 6 6 6 6 7 5 5 5 4 6 5 5 4 4 3 2 2 2 3 2 3 4 4
8 9 12 11 9 6 7 8 7 8 9 10 8 7 9 10 8 10 10 8 7 6 5 6 5 7 8 7 5 5 6 4 4 3 3 1 1 2 2 2 2 2 2
5 8 7 6 6 8 7 8 8 7 6 7 8 10 11 9 13 15 13 9 7 7 6 5 4 7 7 8 6 12 12 8 5 4 3 3 2 3 1 1 1 3 3
5 4 5 4 5 6 6 6 7 7 7 10 11 13 13 12 17 20 20 10 10 8 7 6 5 4 7 6 7 7 9 11 12 8 7 5 4 6 5 2 1 1 2
1 1 4 5 5 6 6 8 8 8 11 10 10 11 9 9 16 18 19 11 10 9 9 7 6 6 7 7 6 6 4 6 7 4 6 7 4 6 5 5 5 2 1
2 2 3 3 5 6 6 9 7 6 8 10 9 11 12 8 16 21 16 10 10 12 11 17 9 8 10 11 7 6 5 1 4 9 5 8 10 11 8 5 2 3 2
5 6 4 4 5 6 7 7 5 5 7 6 8 9 9 8 17 20 15 8 8 6 4 9 19 14 14 13 8 8 7 6 4 5 3 3 6 7 11 3 5 3 2
2 2 4 5 6 5 4 3 5 6 5 6 7 7 9 11 15 22 19 11 9 9 8 6 6 15 15 15 10 7 8 7 7 5 4 3 3 4 4 4 5 5 3
2 4 5 5 4 4 6 6 5 5 6 5 7 5 6 9 15 19 20 15 13 10 11 8 7 13 15 16 11 11 9 8 5 5 3 3 4 4 5 5 6 5 4
2 5 6 6 5 4 4 5 4 4 5 5 5 5 5 5 7 17 19 16 15 9 7 9 11 16 15 12 14 12 11 5 6 4 4 4 4 3 4 3 3 4 5
5 6 5 6 5 4 3 3 3 7 6 6 7 8 7 7 7 8 9 9 11 11 7 7 10 13 14 11 7 7 6 6 7 6 5 3 2 3 3 3 3 2 0
6 7 5 5 5 5 4 4 4 5 5 6 7 7 7 8 12 16 16 13 12 11 8 6 6 4 7 7 6 7 5 5 5 5 4 4 3 3 3 3 2 3 3
7 5 5 4 4 4 4 4 6 9 9 8 10 8 8 12 11 19 19 15 14 18 9 9 10 10 10 10 10 9 8 9 6 5 4 4 4 4 3 3 3 3 4
7 7 5 5 4 4 4 5 5 5 9 10 9 10 12 8 15 20 19 19 20 16 11 11 10 11 12 11 10 10 9 9 7 6 6 5 5 4 4 3 4 3 3
7 11 6 5 5 5 6 6 3 4 5 5 7 8 8 10 11 17 21 15 7 11 11 12 12 11 11 12 11 10 8 7 7 7 6 5 5 5 3 4 4 5 4
7 6 6 5 4 3 3 4 5 6 7 8 2 3 5 2 6 8 14 11 11 12 13 13 11 11 10 10 9 8 8 8 8 7 7 5 5 4 5 5 5 7 5
6 8 6 4 4 4 4 5 7 9 8 7 6 5 5 4 3 5 7 10 10 12 13 13 12 10 11 10 9 8 8 7 8 7 5 6 6 6 6 6 6 5 5
4 5 5 4 5 6 6 7 9 8 9 7 6 5 11 7 7 8 9 11 12 13 14 14 11 12 12 11 10 9 9 9 8 8 7 6 6 6 5 5 5 5 4
4 6 6 6 7 7 7 7 8 8 8 8 7 9 12 7 7 8 11 12 14 14 12 13 11 11 13 13 12 10 10 10 8 8 7 6 7 5 5 4 4 4 5
5 7 8 7 8 9 9 9 9 10 9 8 8 9 6 7 8 9 10 11 12 13 11 13 14 13 13 12 11 11 11 10 10 9 8 8 7 5 6 5 5 4 5
5 6 8 9 9 9 10 12 12 12 10 9 9 10 8 7 8 9 10 10 12 12 12 11 10 14 14 14 13 12 11 10 8 10 13 10 8 7 5 5 5 6 5
6 8 9 10 12 12 12 14 13 12 10 9 9 10 6 6 6 8 9 9 10 10 12 12 9 13 17 20 17 18 14 15 13 12 9 9 11 13 9 5 5 5 4
9 10 9 10 11 11 11 11 13 11 9 8 8 8 6 6 6 6 6 7 8 9 11 10 12 15 16 9 11 15 14 16 13 15 11 8 9 7 6 7 9 6 7
Wind_Direction
197 204 199 198 200 195 199 199 197 185 187 182 187 178 177 172 170 159 157 155 153 162 135 131 130 127 101 89 91 112 132 116 124 263 278 10 18 14 347 345 308 250 304
197 207 204 195 193 202 212 204 181 193 188 191 187 183 181 178 166 166 160 159 163 174 167 142 153 149 132 115 123 152 153 160 129 137 142 54 89 323 276 7 4 28 337
208 205 204 205 204 211 215 207 191 189 192 186 179 183 179 177 171 176 168 164 176 181 176 166 169 161 167 161 146 133 117 103 78 116 128 68 45 15 31 350 16 7 31
187 190 199 205 211 213 196 194 197 193 187 189 193 186 180 176 178 169 162 164 169 177 177 177 170 176 164 153 139 133 122 105 99 103 85 91 80 5 65 60 17 21 17
185 192 210 213 211 193 186 194 194 191 197 196 178 181 177 179 178 171 161 164 164 172 181 175 186 170 179 180 147 139 123 106 113 101 96 95 68 39 66 322 56 336 27
201 214 220 209 193 196 197 201 199 196 190 186 186 184 184 188 183 172 165 159 163 168 180 184 180 171 165 179 172 166 162 141 144 139 150 145 182 165 167 101 61 35 348
209 225 228 223 208 200 196 193 197 198 189 197 195 192 196 189 176 171 170 164 164 169 174 167 170 170 163 169 163 165 178 180 171 157 154 177 175 182 143 93 75 106 233
59 217 236 219 219 209 200 203 208 192 200 201 203 208 197 209 180 173 173 168 164 161 162 173 185 176 172 158 152 128 133 147 145 146 150 170 164 154 137 150 165 147 294
319 268 254 220 213 202 207 214 210 204 201 205 200 198 200 200 181 175 166 167 172 182 186 161 179 184 189 165 148 146 136 144 103 115 146 161 156 156 153 122 92 81 331
309 298 258 247 249 225 214 223 194 203 215 197 201 198 198 183 176 174 167 160 169 176 229 244 172 169 176 169 156 160 160 187 154 104 91 125 155 177 175 168 150 140 195
323 298 271 256 253 242 253 227 221 216 209 207 196 181 182 170 175 176 167 167 189 190 193 195 204 181 169 172 164 169 187 156 167 155 161 164 172 188 215 203 188 150 169
231 277 268 257 238 237 233 252 229 202 206 193 184 175 182 175 178 191 179 180 182 183 199 196 184 189 174 171 171 194 182 157 141 150 172 200 207 206 221 216 203 212 222
272 276 267 257 243 230 233 258 255 219 214 206 184 196 194 184 182 191 186 176 196 194 186 177 165 186 177 170 181 188 158 149 150 144 195 218 220 187 138 159 200 229 245
298 282 265 241 260 254 215 211 226 245 234 227 199 195 187 181 180 184 195 189 193 197 164 163 188 189 180 175 164 184 179 167 170 166 187 220 201 143 161 165 172 171 188
287 281 269 225 222 234 223 219 215 230 231 236 223 205 193 194 202 185 184 197 192 191 155 146 152 185 184 171 178 188 191 163 164 165 176 194 200 162 163 136 189 176 190
289 275 255 238 221 225 227 248 261 257 260 237 236 221 209 218 191 185 189 188 180 155 174 185 187 185 193 193 189 190 189 185 187 172 188 182 194 194 183 174 176 181 201
265 273 251 235 232 221 219 223 239 244 249 258 257 232 219 212 187 185 184 179 175 155 191 194 200 194 189 191 193 192 188 190 176 182 190 191 190 205 165 201 184 175 228
274 262 253 241 222 217 226 229 218 228 255 266 231 219 235 222 203 194 181 167 170 211 194 197 200 188 189 196 192 192 184 167 181 183 186 184 191 193 158 211 187 183 199
277 263 248 252 246 255 246 226 224 229 228 245 216 177 205 184 202 190 174 186 194 199 213 207 201 194 189 184 187 185 185 182 182 173 189 176 181 180 196 208 183 178 177
284 281 287 289 282 264 247 257 255 247 248 244 239 221 137 123 156 163 189 207 200 205 209 213 195 187 181 181 167 165 195 183 180 179 178 177 188 192 198 189 182 169 194
303 301 288 281 255 250 245 242 249 247 242 235 243 215 178 184 188 186 191 208 223 216 205 203 197 191 190 182 165 169 188 200 183 182 182 192 185 188 190 181 166 180 162
305 301 300 286 284 273 259 246 246 240 232 237 237 233 190 204 211 209 206 212 216 222 213 198 192 193 187 177 166 167 200 192 185 179 181 180 179 171 159 152 169 174 168
307 296 291 286 280 277 277 268 258 254 237 223 223 235 210 206 215 227 235 224 218 216 207 192 182 183 179 175 163 181 196 198 189 177 176 175 170 167 166 164 169 159 171
297 295 300 300 294 287 279 274 268 252 246 243 243 233 218 206 210 221 233 220 212 207 193 172 174 174 175 172 178 184 192 192 170 179 171 175 173 170 163 158 168 180 165
314 312 305 302 298 292 288 279 268 256 245 242 241 242 215 208 220 232 235 210 200 188 180 167 161 178 173 174 186 185 188 174 173 169 174 173 175 180 173 161 147 152 151
321 314 297 290 286 279 272 274 278 256 240 233 238 234 203 205 215 208 203 186 177 173 170 169 164 175 169 192 194 178 177 181 170 166 163 160 158 160 158 159 165 166 166